RH
75 75 74 74 74 72 81 81 77 77 80 79 79 75 78 78 78 75 75 72 86 98 83 62 58 73 76 74 86 64 80 84 95 98 98 98 58 40 58 55 63 64 74 77 66 77 58 43 46 45 51 53 47 51
78 78 77 79 80 78 77 76 76 78 82 83 78 74 75 80 82 79 75 74 76 90 87 68 63 61 64 68 82 84 93 91 94 96 99 92 87 87 66 84 56 67 52 55 52 62 50 47 53 46 46 51 51 50
84 77 72 73 76 77 77 77 80 81 83 81 69 67 67 70 69 68 73 78 79 96 83 80 79 58 58 59 63 98 89 99 100 100 98 99 88 92 88 83 73 64 54 64 56 53 53 50 45 46 45 44 42 39
87 86 79 71 70 78 80 75 78 84 85 84 73 69 70 71 72 74 81 80 79 95 97 66 43 64 58 68 88 99 97 94 99 98 97 98 96 82 92 79 87 88 60 66 61 52 47 48 48 45 40 35 33 32
86 88 87 82 72 72 77 81 83 80 75 73 78 78 75 76 82 83 80 83 90 93 90 77 64 59 69 77 100 100 98 98 98 98 99 98 96 93 92 85 93 94 90 71 69 46 49 48 40 34 34 34 31 32
84 89 90 86 78 83 83 77 71 72 75 73 74 79 80 80 80 82 94 95 93 95 100 96 71 92 90 99 99 100 100 99 99 99 99 99 100 100 95 97 95 97 88 81 49 39 36 35 32 30 33 34 32 31
86 88 87 87 85 82 82 82 82 83 84 85 84 82 81 80 83 83 83 91 92 91 98 96 92 99 99 100 100 100 100 100 100 99 98 98 97 90 93 94 97 89 50 41 35 37 49 40 42 34 33 32 31 30
81 81 82 82 80 80 79 77 76 76 76 77 79 80 81 84 87 89 91 98 100 99 100 98 91 96 98 98 98 100 99 98 95 98 98 96 94 95 94 96 97 97 93 92 65 45 44 40 38 38 34 34 36 37
86 85 85 83 80 78 77 78 77 78 78 77 82 82 88 86 94 98 93 98 100 99 98 97 96 96 92 97 98 98 99 96 96 96 96 85 87 94 96 96 97 97 78 87 89 59 44 41 40 39 38 38 40 41
82 86 88 86 84 82 78 81 78 80 81 80 78 89 96 98 98 95 99 100 100 100 99 98 88 96 96 96 95 96 98 96 96 96 93 92 95 94 96 97 96 96 96 90 89 86 54 46 44 43 44 42 42 43
83 84 85 84 84 80 82 80 83 85 76 76 92 96 87 82 99 98 97 97 97 97 92 95 96 96 94 95 95 94 96 96 95 94 89 95 94 94 96 96 97 96 93 66 48 42 41 43 45 46 47 46 47 52
83 86 87 84 84 84 85 86 87 88 89 89 96 91 95 94 92 89 94 90 91 93 91 96 96 96 94 94 96 95 96 90 95 95 89 95 95 85 85 50 42 41 43 46 46 48 46 46 47 50 53 55 56 57
81 84 88 83 82 88 88 86 85 81 65 76 89 88 92 89 86 91 94 90 93 93 96 95 96 95 85 73 93 91 93 96 92 92 94 96 95 90 63 52 53 52 54 56 58 58 58 59 58 59 62 60 62 65
83 83 85 80 88 88 89 75 56 54 73 95 93 90 96 93 93 95 95 96 96 96 95 95 89 85 76 86 87 71 76 86 94 94 95 93 59 60 59 57 59 62 60 60 60 60 63 66 69 68 67 65 64 70
82 80 80 84 88 85 77 42 47 55 79 94 88 96 95 94 96 95 93 95 95 84 85 79 88 72 87 85 82 83 84 96 93 95 94 70 67 69 69 66 66 65 63 64 63 64 63 63 69 70 70 73 74 74
82 71 64 87 83 67 35 37 46 60 78 91 89 92 81 86 84 84 85 92 71 74 88 83 90 86 96 91 85 96 88 96 95 91 71 72 72 70 70 66 66 66 67 66 64 64 66 67 68 70 76 79 81 81
80 74 90 87 55 41 38 40 50 87 93 89 96 93 93 89 94 83 66 63 59 82 92 93 91 98 90 91 94 95 95 94 93 86 74 71 73 73 70 67 66 65 68 69 71 72 74 71 66 72 82 84 80 81
90 90 91 60 46 48 47 57 80 88 94 97 96 94 90 76 75 70 59 56 77 81 87 95 84 92 95 95 94 94 93 86 75 71 67 65 66 66 64 68 72 74 76 74 72 74 78 74 75 82 82 82 80 79
84 86 56 46 51 58 88 82 87 95 97 97 92 86 73 70 62 57 53 50 64 68 90 90 89 95 93 94 94 92 83 72 69 67 69 75 79 78 75 72 71 71 74 78 81 82 78 78 82 83 83 83 90 89
48 44 39 46 46 67 86 94 79 94 99 97 93 94 90 73 66 62 59 54 62 85 86 93 94 92 92 90 82 78 74 63 59 65 69 68 73 79 83 80 76 73 71 73 75 80 78 77 81 83 86 91 88 86
47 41 38 41 52 65 94 100 97 100 99 98 96 96 95 90 77 79 75 64 73 95 94 93 92 87 77 76 77 69 70 71 73 66 69 77 71 74 79 82 82 86 87 90 90 87 85 91 86 94 95 91 88 96
57 43 45 45 63 77 94 94 99 95 98 97 95 94 96 95 94 95 88 84 95 94 94 91 82 73 74 78 80 82 72 71 73 73 74 74 85 86 86 82 93 95 93 90 89 97 93 88 95 95 92 90 94 90
50 47 51 57 73 80 86 84 91 94 93 95 94 93 96 96 95 89 96 94 93 94 92 83 80 77 78 79 82 82 81 78 85 84 80 76 77 81 82 80 84 92 92 92 94 95 96 92 89 97 95 89 93 93
55 69 90 95 89 91 90 94 93 95 94 96 97 100 98 98 92 92 97 95 94 93 87 83 83 81 77 80 86 92 92 84 80 86 89 90 93 87 86 83 84 90 96 92 94 94 93 95 93 91 95 97 95 96
72 83 87 91 92 89 93 93 94 92 98 99 96 100 100 97 96 96 96 96 93 93 89 89 87 88 98 98 89 90 91 93 95 92 89 92 92 88 88 85 85 89 98 93 99 100 99 94 94 95 96 95 96 93
98 96 97 96 97 92 99 96 100 100 100 98 100 97 96 94 92 100 97 97 97 95 96 98 98 96 94 93 96 98 99 95 88 92 87 87 94 98 100 99 96 91 91 98 100 100 100 98 98 96 96 93 94 96
93 97 94 71 88 89 92 87 85 95 100 100 100 95 94 99 100 98 95 95 96 98 98 98 98 100 100 95 92 88 85 85 88 81 76 76 80 84 94 100 98 97 98 98 96 98 99 98 98 96 95 93 94 96
94 93 100 98 96 95 99 98 98 100 99 91 92 100 100 100 100 97 98 98 97 96 95 90 92 93 90 89 89 87 82 78 70 71 74 79 77 82 94 95 95 100 98 98 98 96 97 96 96 96 97 97 95 95
97 91 90 98 97 99 100 100 100 96 88 97 98 99 100 91 97 97 97 98 96 98 95 94 94 87 86 87 92 94 94 86 83 93 93 96 90 83 90 91 94 94 100 95 98 100 97 97 97 97 97 97 96 96
98 97 96 96 96 100 100 100 100 98 90 95 91 92 90 96 97 96 97 96 95 98 99 100 96 90 94 96 92 88 90 93 95 99 100 100 98 92 94 95 99 100 93 95 95 94 98 96 94 93 94 94 95 95
97 98 96 95 99 99 100 97 96 92 94 99 92 98 100 99 97 95 95 95 95 95 98 92 94 96 95 94 94 93 91 94 96 97 100 99 95 94 93 98 99 89 93 97 96 97 96 95 96 96 95 95 95 97
96 99 98 97 99 98 97 99 100 100 100 99 100 100 98 99 99 96 92 93 95 93 96 98 97 96 92 88 88 91 99 93 94 94 98 96 92 98 99 98 91 92 94 95 95 97 98 97 96 96 96 95 96 96
98 98 97 96 97 99 98 97 98 100 99 100 100 100 100 100 98 94 93 93 95 95 95 91 86 82 81 82 86 85 89 91 93 99 100 100 100 98 97 96 96 100 94 93 97 99 98 97 97 96 96 96 96 96
Wind_Speed
28 28 29 29 29 28 29 28 27 27 27 27 25 24 24 22 22 18 19 19 13 5 9 16 19 17 11 9 13 13 10 3 4 5 5 3 5 10 5 9 9 7 6 4 3 2 5 3 4 6 2 4 15 16
28 28 29 29 30 30 29 28 27 27 27 25 24 22 22 21 20 19 22 19 17 6 8 28 38 36 33 26 13 7 7 11 4 3 5 4 3 3 7 4 2 3 4 5 3 3 3 5 5 4 3 10 13 19
29 28 28 28 29 29 29 28 28 27 27 25 24 24 23 23 22 21 23 20 19 4 6 7 10 24 24 27 27 7 6 4 5 2 4 5 2 3 4 3 5 2 3 4 5 5 6 7 8 11 14 16 16 20
30 28 27 28 29 29 29 29 29 29 28 24 25 25 25 24 23 23 23 24 13 3 4 9 15 8 13 15 22 26 20 15 7 6 5 6 1 3 1 4 4 2 4 6 5 6 11 9 9 11 16 19 21 20
33 27 25 25 28 29 30 31 30 27 26 26 25 24 25 25 24 21 22 20 14 4 4 8 19 26 15 17 18 22 16 11 4 4 3 2 2 3 2 4 4 6 3 1 3 9 11 10 11 15 19 18 20 23
33 27 24 24 27 30 31 29 28 29 29 28 27 26 25 23 20 13 2 1 7 2 3 3 3 1 1 8 9 6 4 4 2 2 2 2 3 3 3 3 6 7 5 6 5 13 19 20 17 17 20 20 20 20
31 28 26 26 27 28 29 31 31 31 31 30 28 26 26 25 17 4 3 2 8 6 3 3 3 2 3 3 1 2 1 2 2 2 3 3 5 5 4 4 8 8 12 20 21 25 19 17 18 19 20 20 28 27
30 29 27 27 27 29 32 35 35 33 32 31 31 31 25 16 8 6 8 5 6 4 2 3 4 0 6 2 1 3 2 3 5 3 2 4 4 4 5 9 8 11 12 15 16 20 21 20 20 19 21 20 19 16
30 29 28 29 30 32 34 39 37 35 32 33 32 20 2 0 1 1 9 14 11 5 2 2 4 4 6 2 3 2 2 3 3 5 4 3 5 7 5 6 9 9 12 19 20 20 21 21 18 17 16 16 16 13
32 32 32 32 31 33 36 40 38 34 33 24 9 4 1 3 17 14 3 2 2 3 3 2 2 3 4 3 3 3 2 2 2 4 2 5 6 12 12 11 12 14 14 17 21 19 20 17 15 15 14 12 12 10
34 35 35 34 32 31 37 38 36 31 13 7 3 2 9 13 4 1 2 2 1 2 2 2 2 3 4 2 3 4 2 3 3 4 3 4 5 9 9 13 13 15 18 18 18 15 13 13 12 13 11 13 15 15
36 37 37 34 28 35 37 36 29 19 13 7 11 8 5 2 2 3 2 3 3 3 4 4 2 2 1 2 1 3 3 3 4 4 4 3 4 9 9 14 14 15 16 16 19 15 17 17 16 15 13 13 14 14
39 40 39 29 30 37 38 32 25 17 8 3 1 2 2 3 6 5 5 2 3 5 3 3 2 3 2 1 2 2 4 4 1 3 3 3 4 5 6 10 12 16 20 19 17 20 20 19 19 17 14 14 14 13
39 41 36 22 36 38 35 28 21 11 5 3 4 6 4 4 4 3 6 4 2 4 5 4 2 2 2 3 2 5 2 0 4 4 4 2 4 6 7 8 12 12 13 12 13 16 16 15 15 16 15 12 11 10
40 41 23 31 37 38 31 21 17 10 6 4 4 6 5 5 3 6 7 4 3 5 4 3 1 1 3 3 3 2 4 5 4 3 3 2 5 7 9 9 10 10 9 9 13 13 13 14 14 13 11 10 9 7
36 23 19 35 37 34 24 13 13 6 5 4 5 5 8 5 7 9 8 5 4 6 2 1 2 3 5 3 5 5 4 4 3 4 5 6 8 8 9 9 10 13 13 13 14 14 14 12 10 8 9 9 8 7
26 10 31 32 35 23 19 7 7 6 4 5 3 5 7 3 6 8 8 7 9 3 2 2 5 1 1 4 4 5 4 6 8 8 7 9 9 8 8 12 13 14 14 14 13 13 12 10 10 11 10 9 9 7
22 27 23 31 27 10 7 11 4 4 6 2 4 9 7 6 8 8 7 7 5 3 3 3 2 7 5 4 3 4 7 8 8 8 7 8 12 14 14 12 14 13 11 13 12 12 13 14 13 11 9 8 8 5
25 19 24 24 15 5 4 7 7 3 1 2 3 4 7 7 8 9 9 9 5 6 3 3 7 5 5 4 8 8 7 5 5 6 7 14 15 14 13 13 13 14 14 13 13 11 10 7 6 6 6 6 6 5
14 12 18 19 12 4 5 4 6 3 3 2 2 4 3 7 8 9 12 11 8 4 8 6 5 5 4 6 7 6 5 3 4 6 6 6 13 15 15 13 12 12 11 11 10 9 8 7 7 6 6 6 6 7
10 19 12 15 7 11 4 3 3 1 3 2 3 3 3 3 9 10 9 8 7 5 5 6 6 7 12 13 15 14 16 15 7 5 3 3 11 14 15 15 12 12 10 10 10 10 9 7 9 10 9 9 9 9
9 14 8 8 6 4 4 5 1 3 2 2 3 3 3 4 5 5 3 6 4 4 4 6 7 6 6 10 13 17 15 15 17 16 17 14 6 8 10 12 12 12 11 10 11 11 11 12 12 10 10 11 11 12
10 6 5 11 5 5 3 5 4 5 4 4 3 4 3 3 3 4 3 4 3 8 11 9 9 12 13 14 16 20 21 17 14 15 14 12 12 13 12 12 11 10 9 9 11 11 12 12 11 12 12 12 12 12
8 6 5 3 4 2 2 4 2 3 3 4 4 3 4 2 4 3 3 2 3 10 11 14 14 8 10 15 12 14 17 13 11 14 13 12 12 13 10 9 9 7 7 13 13 13 14 14 13 14 13 12 12 11
5 6 5 5 4 5 6 5 5 5 3 3 3 3 3 2 3 3 2 2 3 5 7 12 11 10 3 3 9 12 15 12 9 6 11 11 11 12 15 15 14 10 8 20 18 17 16 16 15 14 14 13 12 12
5 4 3 2 3 3 2 2 3 2 2 4 2 2 2 2 4 2 2 2 2 3 5 6 5 4 5 10 5 10 14 15 9 5 6 7 8 10 12 11 12 14 17 22 19 17 18 17 16 15 14 12 11 11
3 2 1 1 1 2 2 2 2 3 3 3 3 4 3 4 1 1 1 4 3 6 8 6 4 5 6 8 8 9 13 16 8 7 6 6 7 7 12 14 15 19 23 21 18 19 18 17 16 16 16 16 13 10
2 2 2 2 3 2 2 2 2 1 1 2 2 4 3 2 1 1 3 4 7 6 5 4 5 8 5 6 7 10 9 17 8 6 6 5 9 6 15 20 19 17 19 19 19 17 17 16 17 18 16 15 15 12
2 1 2 3 2 3 2 2 0 2 2 1 2 1 1 1 1 3 3 6 6 7 7 8 6 7 7 4 6 7 7 14 18 6 6 3 9 11 23 24 22 24 24 22 18 16 16 16 15 15 14 13 13 12
1 1 1 2 3 2 1 1 1 0 3 2 1 2 2 1 1 2 2 4 6 6 8 9 8 7 7 9 9 8 6 5 12 11 3 4 13 22 25 27 20 25 24 20 20 20 17 16 15 12 11 10 8 7
2 1 2 2 2 1 1 1 2 3 2 2 3 2 1 1 1 2 3 2 4 6 8 11 10 8 7 8 9 8 6 4 12 14 12 14 18 22 23 20 21 26 21 19 19 18 18 18 17 15 15 13 11 9
3 2 1 2 1 0 1 1 1 2 2 2 2 1 1 2 1 2 0 4 3 5 6 10 13 11 6 6 8 6 7 11 14 16 15 17 20 22 22 18 26 23 21 18 16 17 17 16 16 16 15 14 13 12
1 1 1 2 2 1 1 2 3 1 3 2 2 0 0 1 3 1 1 1 3 4 8 12 14 9 4 9 9 4 7 11 17 15 14 14 15 16 19 23 24 23 21 18 15 15 16 16 15 15 15 14 14 13
Wind_Direction
327 325 323 322 320 318 318 317 318 318 316 314 314 314 312 306 301 296 288 288 264 271 281 265 271 270 264 272 285 297 311 245 277 246 199 203 182 202 126 148 157 152 153 185 178 108 246 91 28 162 174 16 112 119
324 322 323 325 324 322 321 320 320 317 315 314 314 312 313 315 308 304 291 296 291 267 275 282 271 268 264 260 265 247 253 278 260 319 342 308 288 112 128 158 4 181 167 158 116 153 49 13 55 50 25 111 109 111
318 318 322 327 329 328 326 323 319 317 315 312 310 308 308 308 306 301 299 300 299 268 282 251 255 268 260 253 243 253 267 232 229 30 334 289 110 33 145 147 104 72 5 95 138 31 63 63 43 59 84 99 107 113
322 318 321 325 326 326 327 325 322 320 318 313 312 307 306 305 308 302 296 292 287 262 272 287 278 266 266 244 234 228 252 263 286 290 265 268 243 8 41 114 87 345 11 106 78 102 82 52 78 93 96 103 104 105
341 329 322 320 323 325 326 326 326 325 321 318 316 310 307 307 307 310 303 288 261 226 283 293 295 284 278 236 240 242 235 244 252 253 241 285 28 41 7 77 43 343 4 222 168 154 109 109 102 105 104 104 107 110
350 344 333 328 327 327 329 330 327 323 320 316 313 309 307 308 312 324 297 16 122 80 301 298 295 165 267 264 263 274 277 224 230 278 325 5 343 331 72 73 354 342 309 265 111 107 106 102 96 97 99 99 97 98
351 347 342 338 338 340 341 338 334 327 320 315 314 312 310 307 299 226 230 155 267 280 247 276 262 165 295 267 232 286 311 24 326 21 21 11 4 32 46 54 12 24 81 100 105 110 95 96 103 96 93 93 92 89
349 348 347 345 344 342 343 339 334 329 325 321 317 312 307 296 275 247 241 247 274 228 253 266 275 214 360 326 331 344 8 20 21 23 15 10 18 43 53 355 80 90 76 70 80 90 102 105 94 90 90 90 86 86
345 341 338 337 340 339 338 337 333 328 322 318 315 312 332 120 272 67 308 292 252 230 288 295 341 322 349 5 351 353 11 63 23 19 30 38 33 45 331 346 65 77 100 109 99 96 89 82 84 83 87 90 91 90
343 340 337 332 330 333 335 335 334 330 325 322 332 352 287 28 313 302 131 178 177 179 227 264 350 294 340 326 19 348 25 60 65 29 353 46 63 9 16 59 82 95 97 100 95 94 97 89 82 79 79 85 94 94
341 337 335 335 335 334 335 336 335 334 334 347 342 337 309 321 318 337 39 353 347 180 357 348 25 305 20 356 4 2 27 27 65 360 40 43 30 1 8 61 68 81 87 91 92 92 92 96 98 96 88 89 90 90
340 339 337 335 336 339 338 338 339 342 321 289 298 302 301 314 349 34 11 348 358 13 331 327 350 334 8 294 4 6 55 37 60 316 59 59 22 6 60 77 79 77 78 76 79 80 80 81 86 89 86 84 85 91
339 336 338 336 339 340 341 341 343 339 342 337 309 312 9 325 30 25 351 339 338 347 353 330 353 351 299 258 54 59 65 59 244 49 69 44 57 58 70 76 73 77 79 78 73 75 77 76 75 80 80 82 87 81
338 335 336 336 341 341 343 346 352 8 22 54 12 15 31 12 10 327 334 334 358 310 335 339 315 359 323 30 358 76 49 135 73 56 64 59 51 57 61 74 79 72 74 76 74 75 76 77 74 73 73 71 79 75
336 332 330 340 341 342 344 356 10 33 36 44 19 20 17 324 311 340 340 318 7 325 328 318 251 353 6 56 23 98 60 61 45 71 76 82 56 65 66 64 68 65 64 66 69 69 68 75 79 71 65 68 73 77
336 334 338 338 340 344 349 7 24 37 45 42 39 344 332 318 348 353 349 330 337 331 271 246 339 58 36 46 44 12 64 57 82 88 94 82 72 64 66 64 65 68 68 68 65 69 70 68 71 86 86 68 61 55
340 330 332 337 341 348 2 28 29 40 57 25 353 358 340 349 333 332 323 324 315 295 23 55 50 316 293 48 44 11 41 99 91 77 68 66 69 63 60 63 61 60 57 57 61 57 54 50 60 59 49 31 20 22
332 328 336 341 346 357 17 29 58 59 32 6 352 351 356 355 345 346 332 340 0 12 17 63 60 19 54 37 50 70 69 71 66 68 65 60 60 61 63 63 58 58 56 51 51 52 43 38 44 35 24 9 356 1
330 331 340 350 358 20 47 25 28 83 298 323 325 340 360 9 5 0 8 12 31 37 57 51 53 20 36 11 58 62 60 64 83 74 68 59 55 56 56 57 54 50 48 44 40 39 36 36 32 16 1 347 328 350
342 338 355 2 17 51 48 5 12 61 37 318 340 337 336 26 13 21 25 17 20 43 43 46 39 20 22 16 26 39 32 72 97 86 66 52 53 53 47 42 37 34 43 40 37 34 34 28 19 0 340 341 357 347
343 350 357 11 41 53 82 345 33 65 312 21 331 339 328 327 26 24 25 3 42 29 55 37 51 50 46 39 33 41 40 46 49 53 79 73 54 53 44 37 38 41 43 36 22 9 8 4 345 340 344 341 333 326
327 343 357 25 60 53 75 21 165 287 23 286 8 354 17 5 358 15 356 29 49 24 13 29 27 35 41 39 35 33 44 57 57 59 57 57 41 30 26 28 30 19 21 25 6 349 344 339 334 344 341 334 330 330
353 9 32 20 62 41 301 345 49 359 44 331 2 32 19 9 353 336 55 39 51 18 13 15 29 51 53 47 45 43 44 47 49 42 39 48 48 37 28 25 20 15 3 359 350 340 336 338 340 336 340 337 337 332
6 44 45 41 47 339 357 13 10 22 30 21 33 23 4 344 329 56 61 45 30 12 17 15 19 28 33 37 37 31 25 36 57 50 48 45 30 25 19 14 13 12 5 352 348 343 344 342 341 341 337 331 330 325
62 341 60 353 338 36 27 4 354 31 31 333 46 3 339 335 64 55 51 33 17 19 14 9 18 34 37 -0 27 33 29 31 15 17 33 41 33 26 18 15 12 10 354 355 347 339 336 339 339 336 331 328 318 309
71 310 68 323 335 73 333 34 24 349 24 19 5 291 9 63 62 56 56 6 358 22 8 5 356 354 25 25 3 8 4 7 4 356 17 17 19 15 1 349 345 345 347 348 337 329 327 328 326 328 326 324 323 325
71 332 358 37 308 68 37 38 9 72 51 28 330 357 49 65 77 76 108 38 354 351 341 336 347 348 335 339 356 360 9 11 347 310 307 2 17 17 4 345 331 330 339 334 336 333 321 320 319 318 315 317 315 311
112 32 77 307 50 15 112 36 53 46 347 333 30 32 111 120 143 49 38 347 341 350 5 3 5 360 356 355 354 355 5 13 25 50 61 37 15 7 354 353 353 342 340 341 333 329 328 322 315 313 311 307 305 304
56 1 91 34 33 50 49 85 96 49 6 326 108 94 120 55 31 0 343 350 14 24 21 21 11 20 26 27 20 13 10 19 32 32 16 337 340 346 351 351 351 352 343 342 342 336 332 329 327 318 310 302 295 289
20 332 77 73 78 57 281 21 117 156 48 73 66 114 109 99 337 15 27 31 36 22 19 12 7 13 18 19 15 28 23 20 24 23 321 303 321 334 341 342 343 343 344 346 347 349 351 346 351 353 349 341 332 313
327 289 84 63 87 57 112 74 82 79 69 55 11 85 95 149 224 20 20 14 31 40 25 18 21 13 13 10 3 354 5 5 346 345 339 329 331 335 337 340 336 342 346 345 346 349 350 351 354 352 350 346 342 327
0 25 31 109 117 153 197 27 90 74 5 57 359 60 6 57 10 222 127 34 50 30 25 9 5 349 338 344 344 313 300 321 335 337 339 337 335 339 337 332 337 343 345 343 346 349 351 351 353 354 351 349 347 341
13 21 60 117 120 133 332 72 19 32 26 45 359 3 116 129 203 265 304 303 6 6 3 359 352 344 334 337 334 331 327 329 331 325 321 324 326 331 335 334 339 339 340 341 344 345 347 351 354 356 357 356 355 353